#datetime,building,power
2021-07-16T00:00:00,mbh,560.00
2021-07-16T00:01:00,mbh,539.00
2021-07-16T00:02:00,mbh,543.00
2021-07-16T00:03:00,mbh,501.00
2021-07-16T00:04:00,mbh,501.00
2021-07-16T00:05:00,mbh,504.00
2021-07-16T00:06:00,mbh,510.00
2021-07-16T00:07:00,mbh,535.00
2021-07-16T00:08:00,mbh,512.00
2021-07-16T00:09:00,mbh,505.00
2021-07-16T00:10:00,mbh,502.00
2021-07-16T00:11:00,mbh,503.00
2021-07-16T00:12:00,mbh,501.00
2021-07-16T00:13:00,mbh,497.00
2021-07-16T00:14:00,mbh,499.00
2021-07-16T00:15:00,mbh,502.00
2021-07-16T00:16:00,mbh,560.00
2021-07-16T00:17:00,mbh,534.00
2021-07-16T00:18:00,mbh,531.00
2021-07-16T00:19:00,mbh,511.00
2021-07-16T00:20:00,mbh,507.00
2021-07-16T00:21:00,mbh,531.00
2021-07-16T00:22:00,mbh,500.00
2021-07-16T00:23:00,mbh,515.00
2021-07-16T00:24:00,mbh,537.00
2021-07-16T00:25:00,mbh,510.00
2021-07-16T00:26:00,mbh,499.00
2021-07-16T00:27:00,mbh,503.00
2021-07-16T00:28:00,mbh,512.00
2021-07-16T00:29:00,mbh,539.00
2021-07-16T00:30:00,mbh,518.00
2021-07-16T00:31:00,mbh,512.00
2021-07-16T00:32:00,mbh,507.00
2021-07-16T00:33:00,mbh,514.00
2021-07-16T00:34:00,mbh,539.00
2021-07-16T00:35:00,mbh,513.00
2021-07-16T00:36:00,mbh,516.00
2021-07-16T00:37:00,mbh,501.00
2021-07-16T00:38:00,mbh,528.00
2021-07-16T00:39:00,mbh,511.00
2021-07-16T00:40:00,mbh,535.00
2021-07-16T00:41:00,mbh,511.00
2021-07-16T00:42:00,mbh,530.00
2021-07-16T00:43:00,mbh,505.00
2021-07-16T00:44:00,mbh,528.00
2021-07-16T00:45:00,mbh,502.00
2021-07-16T00:46:00,mbh,531.00
2021-07-16T00:47:00,mbh,503.00
2021-07-16T00:48:00,mbh,498.00
2021-07-16T00:49:00,mbh,480.00
2021-07-16T00:50:00,mbh,485.00
2021-07-16T00:51:00,mbh,526.00
2021-07-16T00:52:00,mbh,506.00
2021-07-16T00:53:00,mbh,506.00
2021-07-16T00:54:00,mbh,505.00
2021-07-16T00:55:00,mbh,525.00
2021-07-16T00:56:00,mbh,502.00
2021-07-16T00:57:00,mbh,497.00
2021-07-16T00:58:00,mbh,508.00
2021-07-16T00:59:00,mbh,532.00
2021-07-16T01:00:00,mbh,537.00
2021-07-16T01:01:00,mbh,521.00
2021-07-16T01:02:00,mbh,515.00
2021-07-16T01:03:00,mbh,509.00
2021-07-16T01:04:00,mbh,516.00
2021-07-16T01:05:00,mbh,512.00
2021-07-16T01:06:00,mbh,514.00
2021-07-16T01:07:00,mbh,499.00
2021-07-16T01:08:00,mbh,502.00
2021-07-16T01:09:00,mbh,502.00
2021-07-16T01:10:00,mbh,515.00
2021-07-16T01:11:00,mbh,512.00
2021-07-16T01:12:00,mbh,512.00
2021-07-16T01:13:00,mbh,513.00
2021-07-16T01:14:00,mbh,502.00
2021-07-16T01:15:00,mbh,501.00
2021-07-16T01:16:00,mbh,531.00
2021-07-16T01:17:00,mbh,537.00
2021-07-16T01:18:00,mbh,532.00
2021-07-16T01:19:00,mbh,527.00
2021-07-16T01:20:00,mbh,505.00
2021-07-16T01:21:00,mbh,505.00
2021-07-16T01:22:00,mbh,510.00
2021-07-16T01:23:00,mbh,507.00
2021-07-16T01:24:00,mbh,511.00
2021-07-16T01:25:00,mbh,523.00
2021-07-16T01:26:00,mbh,525.00
2021-07-16T01:27:00,mbh,501.00
2021-07-16T01:28:00,mbh,532.00
2021-07-16T01:29:00,mbh,509.00
2021-07-16T01:30:00,mbh,506.00
2021-07-16T01:31:00,mbh,521.00
2021-07-16T01:32:00,mbh,503.00
2021-07-16T01:33:00,mbh,493.00
2021-07-16T01:34:00,mbh,498.00
2021-07-16T01:35:00,mbh,499.00
2021-07-16T01:36:00,mbh,501.00
2021-07-16T01:37:00,mbh,489.00
2021-07-16T01:38:00,mbh,510.00
2021-07-16T01:39:00,mbh,506.00
2021-07-16T01:40:00,mbh,499.00
2021-07-16T01:41:00,mbh,500.00
2021-07-16T01:42:00,mbh,493.00
2021-07-16T01:43:00,mbh,489.00
2021-07-16T01:44:00,mbh,491.00
2021-07-16T01:45:00,mbh,488.00
2021-07-16T01:46:00,mbh,509.00
2021-07-16T01:47:00,mbh,532.00
2021-07-16T01:48:00,mbh,516.00
2021-07-16T01:49:00,mbh,512.00
2021-07-16T01:50:00,mbh,511.00
2021-07-16T01:51:00,mbh,513.00
2021-07-16T01:52:00,mbh,530.00
2021-07-16T01:53:00,mbh,532.00
2021-07-16T01:54:00,mbh,526.00
2021-07-16T01:55:00,mbh,551.00
2021-07-16T01:56:00,mbh,526.00
2021-07-16T01:57:00,mbh,531.00
2021-07-16T01:58:00,mbh,518.00
2021-07-16T01:59:00,mbh,513.00
2021-07-16T02:00:00,mbh,518.00
2021-07-16T02:01:00,mbh,524.00
2021-07-16T02:02:00,mbh,514.00
2021-07-16T02:03:00,mbh,506.00
2021-07-16T02:04:00,mbh,505.00
2021-07-16T02:05:00,mbh,504.00
2021-07-16T02:06:00,mbh,504.00
2021-07-16T02:07:00,mbh,512.00
2021-07-16T02:08:00,mbh,513.00
2021-07-16T02:09:00,mbh,533.00
2021-07-16T02:10:00,mbh,503.00
2021-07-16T02:11:00,mbh,523.00
2021-07-16T02:12:00,mbh,499.00
2021-07-16T02:13:00,mbh,502.00
2021-07-16T02:14:00,mbh,502.00
2021-07-16T02:15:00,mbh,494.00
2021-07-16T02:16:00,mbh,490.00
2021-07-16T02:17:00,mbh,494.00
2021-07-16T02:18:00,mbh,491.00
2021-07-16T02:19:00,mbh,523.00
2021-07-16T02:20:00,mbh,484.00
2021-07-16T02:21:00,mbh,491.00
2021-07-16T02:22:00,mbh,498.00
2021-07-16T02:23:00,mbh,500.00
2021-07-16T02:24:00,mbh,491.00
2021-07-16T02:25:00,mbh,496.00
2021-07-16T02:26:00,mbh,521.00
2021-07-16T02:27:00,mbh,525.00
2021-07-16T02:28:00,mbh,529.00
2021-07-16T02:29:00,mbh,505.00
2021-07-16T02:30:00,mbh,531.00
2021-07-16T02:31:00,mbh,547.00
2021-07-16T02:32:00,mbh,524.00
2021-07-16T02:33:00,mbh,521.00
2021-07-16T02:34:00,mbh,514.00
2021-07-16T02:35:00,mbh,516.00
2021-07-16T02:36:00,mbh,511.00
2021-07-16T02:37:00,mbh,503.00
2021-07-16T02:38:00,mbh,505.00
2021-07-16T02:39:00,mbh,511.00
2021-07-16T02:40:00,mbh,520.00
2021-07-16T02:41:00,mbh,511.00
2021-07-16T02:42:00,mbh,507.00
2021-07-16T02:43:00,mbh,500.00
2021-07-16T02:44:00,mbh,492.00
2021-07-16T02:45:00,mbh,526.00
2021-07-16T02:46:00,mbh,518.00
2021-07-16T02:47:00,mbh,490.00
2021-07-16T02:48:00,mbh,491.00
2021-07-16T02:49:00,mbh,491.00
2021-07-16T02:50:00,mbh,495.00
2021-07-16T02:51:00,mbh,518.00
2021-07-16T02:52:00,mbh,493.00
2021-07-16T02:53:00,mbh,487.00
2021-07-16T02:54:00,mbh,491.00
2021-07-16T02:55:00,mbh,489.00
2021-07-16T02:56:00,mbh,507.00
2021-07-16T02:57:00,mbh,488.00
2021-07-16T02:58:00,mbh,495.00
2021-07-16T02:59:00,mbh,499.00
2021-07-16T03:00:00,mbh,500.00
2021-07-16T03:01:00,mbh,516.00
2021-07-16T03:02:00,mbh,489.00
2021-07-16T03:03:00,mbh,497.00
2021-07-16T03:04:00,mbh,521.00
2021-07-16T03:05:00,mbh,515.00
2021-07-16T03:06:00,mbh,530.00
2021-07-16T03:07:00,mbh,510.00
2021-07-16T03:08:00,mbh,508.00
2021-07-16T03:09:00,mbh,510.00
2021-07-16T03:10:00,mbh,517.00
2021-07-16T03:11:00,mbh,527.00
2021-07-16T03:12:00,mbh,551.00
2021-07-16T03:13:00,mbh,528.00
2021-07-16T03:14:00,mbh,517.00
2021-07-16T03:15:00,mbh,523.00
2021-07-16T03:16:00,mbh,521.00
2021-07-16T03:17:00,mbh,520.00
2021-07-16T03:18:00,mbh,520.00
2021-07-16T03:19:00,mbh,553.00
2021-07-16T03:20:00,mbh,506.00
2021-07-16T03:21:00,mbh,506.00
2021-07-16T03:22:00,mbh,532.00
2021-07-16T03:23:00,mbh,511.00
2021-07-16T03:24:00,mbh,509.00
2021-07-16T03:25:00,mbh,521.00
2021-07-16T03:26:00,mbh,501.00
2021-07-16T03:27:00,mbh,503.00
2021-07-16T03:28:00,mbh,506.00
2021-07-16T03:29:00,mbh,503.00
2021-07-16T03:30:00,mbh,496.00
2021-07-16T03:31:00,mbh,509.00
2021-07-16T03:32:00,mbh,513.00
2021-07-16T03:33:00,mbh,493.00
2021-07-16T03:34:00,mbh,496.00
2021-07-16T03:35:00,mbh,493.00
2021-07-16T03:36:00,mbh,491.00
2021-07-16T03:37:00,mbh,490.00
2021-07-16T03:38:00,mbh,486.00
2021-07-16T03:39:00,mbh,486.00
2021-07-16T03:40:00,mbh,489.00
2021-07-16T03:41:00,mbh,494.00
2021-07-16T03:42:00,mbh,490.00
2021-07-16T03:43:00,mbh,486.00
2021-07-16T03:44:00,mbh,489.00
2021-07-16T03:45:00,mbh,495.00
2021-07-16T03:46:00,mbh,528.00
2021-07-16T03:47:00,mbh,526.00
2021-07-16T03:48:00,mbh,497.00
2021-07-16T03:49:00,mbh,491.00
2021-07-16T03:50:00,mbh,495.00
2021-07-16T03:51:00,mbh,513.00
2021-07-16T03:52:00,mbh,516.00
2021-07-16T03:53:00,mbh,537.00
2021-07-16T03:54:00,mbh,547.00
2021-07-16T03:55:00,mbh,519.00
2021-07-16T03:56:00,mbh,547.00
2021-07-16T03:57:00,mbh,517.00
2021-07-16T03:58:00,mbh,545.00
2021-07-16T03:59:00,mbh,521.00
2021-07-16T04:00:00,mbh,547.00
2021-07-16T04:01:00,mbh,520.00
2021-07-16T04:02:00,mbh,520.00
2021-07-16T04:03:00,mbh,510.00
2021-07-16T04:04:00,mbh,505.00
2021-07-16T04:05:00,mbh,500.00
2021-07-16T04:06:00,mbh,518.00
2021-07-16T04:07:00,mbh,496.00
2021-07-16T04:08:00,mbh,495.00
2021-07-16T04:09:00,mbh,502.00
2021-07-16T04:10:00,mbh,517.00
2021-07-16T04:11:00,mbh,495.00
2021-07-16T04:12:00,mbh,512.00
2021-07-16T04:13:00,mbh,499.00
2021-07-16T04:14:00,mbh,500.00
2021-07-16T04:15:00,mbh,500.00
2021-07-16T04:16:00,mbh,487.00
2021-07-16T04:17:00,mbh,506.00
2021-07-16T04:18:00,mbh,483.00
2021-07-16T04:19:00,mbh,496.00
2021-07-16T04:20:00,mbh,501.00
2021-07-16T04:21:00,mbh,495.00
2021-07-16T04:22:00,mbh,487.00
2021-07-16T04:23:00,mbh,485.00
2021-07-16T04:24:00,mbh,484.00
2021-07-16T04:25:00,mbh,523.00
2021-07-16T04:26:00,mbh,501.00
2021-07-16T04:27:00,mbh,503.00
2021-07-16T04:28:00,mbh,493.00
2021-07-16T04:29:00,mbh,496.00
2021-07-16T04:30:00,mbh,507.00
2021-07-16T04:31:00,mbh,501.00
2021-07-16T04:32:00,mbh,538.00
2021-07-16T04:33:00,mbh,543.00
2021-07-16T04:34:00,mbh,527.00
2021-07-16T04:35:00,mbh,525.00
2021-07-16T04:36:00,mbh,544.00
2021-07-16T04:37:00,mbh,538.00
2021-07-16T04:38:00,mbh,545.00
2021-07-16T04:39:00,mbh,554.00
2021-07-16T04:40:00,mbh,526.00
2021-07-16T04:41:00,mbh,522.00
2021-07-16T04:42:00,mbh,507.00
2021-07-16T04:43:00,mbh,493.00
2021-07-16T04:44:00,mbh,500.00
2021-07-16T04:45:00,mbh,510.00
2021-07-16T04:46:00,mbh,505.00
2021-07-16T04:47:00,mbh,504.00
2021-07-16T04:48:00,mbh,497.00
2021-07-16T04:49:00,mbh,496.00
2021-07-16T04:50:00,mbh,493.00
2021-07-16T04:51:00,mbh,498.00
2021-07-16T04:52:00,mbh,525.00
2021-07-16T04:53:00,mbh,528.00
2021-07-16T04:54:00,mbh,516.00
2021-07-16T04:55:00,mbh,493.00
2021-07-16T04:56:00,mbh,512.00
2021-07-16T04:57:00,mbh,485.00
2021-07-16T04:58:00,mbh,491.00
2021-07-16T04:59:00,mbh,508.00
2021-07-16T05:00:00,mbh,472.00
2021-07-16T05:01:00,mbh,469.00
2021-07-16T05:02:00,mbh,488.00
2021-07-16T05:03:00,mbh,488.00
2021-07-16T05:04:00,mbh,491.00
2021-07-16T05:05:00,mbh,484.00
2021-07-16T05:06:00,mbh,506.00
2021-07-16T05:07:00,mbh,487.00
2021-07-16T05:08:00,mbh,485.00
2021-07-16T05:09:00,mbh,499.00
2021-07-16T05:10:00,mbh,505.00
2021-07-16T05:11:00,mbh,505.00
2021-07-16T05:12:00,mbh,512.00
2021-07-16T05:13:00,mbh,517.00
2021-07-16T05:14:00,mbh,520.00
2021-07-16T05:15:00,mbh,538.00
2021-07-16T05:16:00,mbh,519.00
2021-07-16T05:17:00,mbh,508.00
2021-07-16T05:18:00,mbh,508.00
2021-07-16T05:19:00,mbh,504.00
2021-07-16T05:20:00,mbh,508.00
2021-07-16T05:21:00,mbh,505.00
2021-07-16T05:22:00,mbh,497.00
2021-07-16T05:23:00,mbh,531.00
2021-07-16T05:24:00,mbh,507.00
2021-07-16T05:25:00,mbh,512.00
2021-07-16T05:26:00,mbh,522.00
2021-07-16T05:27:00,mbh,517.00
2021-07-16T05:28:00,mbh,515.00
2021-07-16T05:29:00,mbh,498.00
2021-07-16T05:30:00,mbh,502.00
2021-07-16T05:31:00,mbh,495.00
2021-07-16T05:32:00,mbh,501.00
2021-07-16T05:33:00,mbh,496.00
2021-07-16T05:34:00,mbh,501.00
2021-07-16T05:35:00,mbh,496.00
2021-07-16T05:36:00,mbh,489.00
2021-07-16T05:37:00,mbh,533.00
2021-07-16T05:38:00,mbh,508.00
2021-07-16T05:39:00,mbh,536.00
2021-07-16T05:40:00,mbh,506.00
2021-07-16T05:41:00,mbh,495.00
2021-07-16T05:42:00,mbh,503.00
2021-07-16T05:43:00,mbh,504.00
2021-07-16T05:44:00,mbh,503.00
2021-07-16T05:45:00,mbh,500.00
2021-07-16T05:46:00,mbh,507.00
2021-07-16T05:47:00,mbh,489.00
2021-07-16T05:48:00,mbh,488.00
2021-07-16T05:49:00,mbh,501.00
2021-07-16T05:50:00,mbh,500.00
2021-07-16T05:51:00,mbh,506.00
2021-07-16T05:52:00,mbh,534.00
2021-07-16T05:53:00,mbh,497.00
2021-07-16T05:54:00,mbh,499.00
2021-07-16T05:55:00,mbh,500.00
2021-07-16T05:56:00,mbh,509.00
2021-07-16T05:57:00,mbh,508.00
2021-07-16T05:58:00,mbh,506.00
2021-07-16T05:59:00,mbh,505.00
2021-07-16T06:00:00,mbh,496.00
2021-07-16T06:01:00,mbh,497.00
2021-07-16T06:02:00,mbh,502.00
2021-07-16T06:03:00,mbh,502.00
2021-07-16T06:04:00,mbh,499.00
2021-07-16T06:05:00,mbh,505.00
2021-07-16T06:06:00,mbh,499.00
2021-07-16T06:07:00,mbh,501.00
2021-07-16T06:08:00,mbh,526.00
2021-07-16T06:09:00,mbh,519.00
2021-07-16T06:10:00,mbh,517.00
2021-07-16T06:11:00,mbh,510.00
2021-07-16T06:12:00,mbh,495.00
2021-07-16T06:13:00,mbh,517.00
2021-07-16T06:14:00,mbh,522.00
2021-07-16T06:15:00,mbh,499.00
2021-07-16T06:16:00,mbh,525.00
2021-07-16T06:17:00,mbh,506.00
2021-07-16T06:18:00,mbh,493.00
2021-07-16T06:19:00,mbh,494.00
2021-07-16T06:20:00,mbh,516.00
2021-07-16T06:21:00,mbh,503.00
2021-07-16T06:22:00,mbh,524.00
2021-07-16T06:23:00,mbh,498.00
2021-07-16T06:24:00,mbh,491.00
2021-07-16T06:25:00,mbh,493.00
2021-07-16T06:26:00,mbh,499.00
2021-07-16T06:27:00,mbh,532.00
2021-07-16T06:28:00,mbh,499.00
2021-07-16T06:29:00,mbh,499.00
2021-07-16T06:30:00,mbh,485.00
2021-07-16T06:31:00,mbh,492.00
2021-07-16T06:32:00,mbh,521.00
2021-07-16T06:33:00,mbh,497.00
2021-07-16T06:34:00,mbh,502.00
2021-07-16T06:35:00,mbh,498.00
2021-07-16T06:36:00,mbh,506.00
2021-07-16T06:37:00,mbh,499.00
2021-07-16T06:38:00,mbh,500.00
2021-07-16T06:39:00,mbh,530.00
2021-07-16T06:40:00,mbh,508.00
2021-07-16T06:41:00,mbh,534.00
2021-07-16T06:42:00,mbh,509.00
2021-07-16T06:43:00,mbh,503.00
2021-07-16T06:44:00,mbh,521.00
2021-07-16T06:45:00,mbh,503.00
2021-07-16T06:46:00,mbh,502.00
2021-07-16T06:47:00,mbh,532.00
2021-07-16T06:48:00,mbh,491.00
2021-07-16T06:49:00,mbh,494.00
2021-07-16T06:50:00,mbh,495.00
2021-07-16T06:51:00,mbh,504.00
2021-07-16T06:52:00,mbh,538.00
2021-07-16T06:53:00,mbh,532.00
2021-07-16T06:54:00,mbh,510.00
2021-07-16T06:55:00,mbh,500.00
2021-07-16T06:56:00,mbh,501.00
2021-07-16T06:57:00,mbh,501.00
2021-07-16T06:58:00,mbh,502.00
2021-07-16T06:59:00,mbh,505.00
2021-07-16T07:00:00,mbh,496.00
2021-07-16T07:01:00,mbh,506.00
2021-07-16T07:02:00,mbh,546.00
2021-07-16T07:03:00,mbh,563.00
2021-07-16T07:04:00,mbh,596.00
2021-07-16T07:05:00,mbh,605.00
2021-07-16T07:06:00,mbh,606.00
2021-07-16T07:07:00,mbh,607.00
2021-07-16T07:08:00,mbh,623.00
2021-07-16T07:09:00,mbh,650.00
2021-07-16T07:10:00,mbh,646.00
2021-07-16T07:11:00,mbh,639.00
2021-07-16T07:12:00,mbh,638.00
2021-07-16T07:13:00,mbh,645.00
2021-07-16T07:14:00,mbh,646.00
2021-07-16T07:15:00,mbh,642.00
2021-07-16T07:16:00,mbh,647.00
2021-07-16T07:17:00,mbh,650.00
2021-07-16T07:18:00,mbh,672.00
2021-07-16T07:19:00,mbh,678.00
2021-07-16T07:20:00,mbh,671.00
2021-07-16T07:21:00,mbh,644.00
2021-07-16T07:22:00,mbh,716.00
2021-07-16T07:23:00,mbh,654.00
2021-07-16T07:24:00,mbh,638.00
2021-07-16T07:25:00,mbh,638.00
2021-07-16T07:26:00,mbh,652.00
2021-07-16T07:27:00,mbh,655.00
2021-07-16T07:28:00,mbh,676.00
2021-07-16T07:29:00,mbh,649.00
2021-07-16T07:30:00,mbh,651.00
2021-07-16T07:31:00,mbh,653.00
2021-07-16T07:32:00,mbh,677.00
2021-07-16T07:33:00,mbh,656.00
2021-07-16T07:34:00,mbh,655.00
2021-07-16T07:35:00,mbh,657.00
2021-07-16T07:36:00,mbh,675.00
2021-07-16T07:37:00,mbh,654.00
2021-07-16T07:38:00,mbh,684.00
2021-07-16T07:39:00,mbh,657.00
2021-07-16T07:40:00,mbh,666.00
2021-07-16T07:41:00,mbh,655.00
2021-07-16T07:42:00,mbh,680.00
2021-07-16T07:43:00,mbh,662.00
2021-07-16T07:44:00,mbh,661.00
2021-07-16T07:45:00,mbh,677.00
2021-07-16T07:46:00,mbh,694.00
2021-07-16T07:47:00,mbh,669.00
2021-07-16T07:48:00,mbh,694.00
2021-07-16T07:49:00,mbh,673.00
2021-07-16T07:50:00,mbh,692.00
2021-07-16T07:51:00,mbh,666.00
2021-07-16T07:52:00,mbh,665.00
2021-07-16T07:53:00,mbh,660.00
2021-07-16T07:54:00,mbh,667.00
2021-07-16T07:55:00,mbh,695.00
2021-07-16T07:56:00,mbh,668.00
2021-07-16T07:57:00,mbh,672.00
2021-07-16T07:58:00,mbh,678.00
2021-07-16T07:59:00,mbh,671.00
2021-07-16T08:00:00,mbh,677.00
2021-07-16T08:01:00,mbh,674.00
2021-07-16T08:02:00,mbh,694.00
2021-07-16T08:03:00,mbh,714.00
2021-07-16T08:04:00,mbh,720.00
2021-07-16T08:05:00,mbh,733.00
2021-07-16T08:06:00,mbh,737.00
2021-07-16T08:07:00,mbh,740.00
2021-07-16T08:08:00,mbh,746.00
2021-07-16T08:09:00,mbh,736.00
2021-07-16T08:10:00,mbh,769.00
2021-07-16T08:11:00,mbh,762.00
2021-07-16T08:12:00,mbh,748.00
2021-07-16T08:13:00,mbh,757.00
2021-07-16T08:14:00,mbh,749.00
2021-07-16T08:15:00,mbh,747.00
2021-07-16T08:16:00,mbh,761.00
2021-07-16T08:17:00,mbh,783.00
2021-07-16T08:18:00,mbh,749.00
2021-07-16T08:19:00,mbh,805.00
2021-07-16T08:20:00,mbh,758.00
2021-07-16T08:21:00,mbh,754.00
2021-07-16T08:22:00,mbh,787.00
2021-07-16T08:23:00,mbh,768.00
2021-07-16T08:24:00,mbh,762.00
2021-07-16T08:25:00,mbh,748.00
2021-07-16T08:26:00,mbh,755.00
2021-07-16T08:27:00,mbh,750.00
2021-07-16T08:28:00,mbh,737.00
2021-07-16T08:29:00,mbh,747.00
2021-07-16T08:30:00,mbh,747.00
2021-07-16T08:31:00,mbh,738.00
2021-07-16T08:32:00,mbh,750.00
2021-07-16T08:33:00,mbh,763.00
2021-07-16T08:34:00,mbh,758.00
2021-07-16T08:35:00,mbh,750.00
2021-07-16T08:36:00,mbh,750.00
2021-07-16T08:37:00,mbh,776.00
2021-07-16T08:38:00,mbh,814.00
2021-07-16T08:39:00,mbh,771.00
2021-07-16T08:40:00,mbh,774.00
2021-07-16T08:41:00,mbh,757.00
2021-07-16T08:42:00,mbh,755.00
2021-07-16T08:43:00,mbh,772.00
2021-07-16T08:44:00,mbh,788.00
2021-07-16T08:45:00,mbh,794.00
2021-07-16T08:46:00,mbh,789.00
2021-07-16T08:47:00,mbh,753.00
2021-07-16T08:48:00,mbh,763.00
2021-07-16T08:49:00,mbh,760.00
2021-07-16T08:50:00,mbh,730.00
2021-07-16T08:51:00,mbh,740.00
2021-07-16T08:52:00,mbh,722.00
2021-07-16T08:53:00,mbh,764.00
2021-07-16T08:54:00,mbh,784.00
2021-07-16T08:55:00,mbh,762.00
2021-07-16T08:56:00,mbh,784.00
2021-07-16T08:57:00,mbh,755.00
2021-07-16T08:58:00,mbh,749.00
2021-07-16T08:59:00,mbh,770.00
2021-07-16T09:00:00,mbh,779.00
2021-07-16T09:01:00,mbh,762.00
2021-07-16T09:02:00,mbh,757.00
2021-07-16T09:03:00,mbh,771.00
2021-07-16T09:04:00,mbh,770.00
2021-07-16T09:05:00,mbh,771.00
2021-07-16T09:06:00,mbh,764.00
2021-07-16T09:07:00,mbh,766.00
2021-07-16T09:08:00,mbh,774.00
2021-07-16T09:09:00,mbh,766.00
2021-07-16T09:10:00,mbh,789.00
2021-07-16T09:11:00,mbh,759.00
2021-07-16T09:12:00,mbh,777.00
2021-07-16T09:13:00,mbh,788.00
2021-07-16T09:14:00,mbh,769.00
2021-07-16T09:15:00,mbh,822.00
2021-07-16T09:16:00,mbh,768.00
2021-07-16T09:17:00,mbh,784.00
2021-07-16T09:18:00,mbh,813.00
2021-07-16T09:19:00,mbh,791.00
2021-07-16T09:20:00,mbh,783.00
2021-07-16T09:21:00,mbh,769.00
2021-07-16T09:22:00,mbh,766.00
2021-07-16T09:23:00,mbh,805.00
2021-07-16T09:24:00,mbh,771.00
2021-07-16T09:25:00,mbh,787.00
2021-07-16T09:26:00,mbh,777.00
2021-07-16T09:27:00,mbh,769.00
2021-07-16T09:28:00,mbh,764.00
2021-07-16T09:29:00,mbh,763.00
2021-07-16T09:30:00,mbh,787.00
2021-07-16T09:31:00,mbh,766.00
2021-07-16T09:32:00,mbh,768.00
2021-07-16T09:33:00,mbh,785.00
2021-07-16T09:34:00,mbh,790.00
2021-07-16T09:35:00,mbh,779.00
2021-07-16T09:36:00,mbh,773.00
2021-07-16T09:37:00,mbh,756.00
2021-07-16T09:38:00,mbh,770.00
2021-07-16T09:39:00,mbh,795.00
2021-07-16T09:40:00,mbh,794.00
2021-07-16T09:41:00,mbh,763.00
2021-07-16T09:42:00,mbh,782.00
2021-07-16T09:43:00,mbh,775.00
2021-07-16T09:44:00,mbh,769.00
2021-07-16T09:45:00,mbh,781.00
2021-07-16T09:46:00,mbh,768.00
2021-07-16T09:47:00,mbh,775.00
2021-07-16T09:48:00,mbh,777.00
2021-07-16T09:49:00,mbh,790.00
2021-07-16T09:50:00,mbh,801.00
2021-07-16T09:51:00,mbh,807.00
2021-07-16T09:52:00,mbh,775.00
2021-07-16T09:53:00,mbh,783.00
2021-07-16T09:54:00,mbh,779.00
2021-07-16T09:55:00,mbh,771.00
2021-07-16T09:56:00,mbh,771.00
2021-07-16T09:57:00,mbh,788.00
2021-07-16T09:58:00,mbh,856.00
2021-07-16T09:59:00,mbh,802.00
2021-07-16T10:00:00,mbh,802.00
2021-07-16T10:01:00,mbh,784.00
2021-07-16T10:02:00,mbh,801.00
2021-07-16T10:03:00,mbh,787.00
2021-07-16T10:04:00,mbh,801.00
2021-07-16T10:05:00,mbh,790.00
2021-07-16T10:06:00,mbh,788.00
2021-07-16T10:07:00,mbh,775.00
2021-07-16T10:08:00,mbh,795.00
2021-07-16T10:09:00,mbh,825.00
2021-07-16T10:10:00,mbh,788.00
2021-07-16T10:11:00,mbh,795.00
2021-07-16T10:12:00,mbh,804.00
2021-07-16T10:13:00,mbh,813.00
2021-07-16T10:14:00,mbh,794.00
2021-07-16T10:15:00,mbh,798.00
2021-07-16T10:16:00,mbh,786.00
2021-07-16T10:17:00,mbh,786.00
2021-07-16T10:18:00,mbh,789.00
2021-07-16T10:19:00,mbh,795.00
2021-07-16T10:20:00,mbh,824.00
2021-07-16T10:21:00,mbh,791.00
2021-07-16T10:22:00,mbh,785.00
2021-07-16T10:23:00,mbh,830.00
2021-07-16T10:24:00,mbh,806.00
2021-07-16T10:25:00,mbh,785.00
2021-07-16T10:26:00,mbh,801.00
2021-07-16T10:27:00,mbh,798.00
2021-07-16T10:28:00,mbh,793.00
2021-07-16T10:29:00,mbh,777.00
2021-07-16T10:30:00,mbh,772.00
2021-07-16T10:31:00,mbh,794.00
2021-07-16T10:32:00,mbh,813.00
2021-07-16T10:33:00,mbh,816.00
2021-07-16T10:34:00,mbh,783.00
2021-07-16T10:35:00,mbh,791.00
2021-07-16T10:36:00,mbh,800.00
2021-07-16T10:37:00,mbh,793.00
2021-07-16T10:38:00,mbh,785.00
2021-07-16T10:39:00,mbh,812.00
2021-07-16T10:40:00,mbh,787.00
2021-07-16T10:41:00,mbh,788.00
2021-07-16T10:42:00,mbh,785.00
2021-07-16T10:43:00,mbh,785.00
2021-07-16T10:44:00,mbh,798.00
2021-07-16T10:45:00,mbh,782.00
2021-07-16T10:46:00,mbh,806.00
2021-07-16T10:47:00,mbh,788.00
2021-07-16T10:48:00,mbh,800.00
2021-07-16T10:49:00,mbh,785.00
2021-07-16T10:50:00,mbh,782.00
2021-07-16T10:51:00,mbh,801.00
2021-07-16T10:52:00,mbh,802.00
2021-07-16T10:53:00,mbh,792.00
2021-07-16T10:54:00,mbh,794.00
2021-07-16T10:55:00,mbh,781.00
2021-07-16T10:56:00,mbh,814.00
2021-07-16T10:57:00,mbh,815.00
2021-07-16T10:58:00,mbh,810.00
2021-07-16T10:59:00,mbh,793.00
2021-07-16T11:00:00,mbh,775.00
2021-07-16T11:01:00,mbh,825.00
2021-07-16T11:02:00,mbh,798.00
2021-07-16T11:03:00,mbh,804.00
2021-07-16T11:04:00,mbh,792.00
2021-07-16T11:05:00,mbh,770.00
2021-07-16T11:06:00,mbh,809.00
2021-07-16T11:07:00,mbh,786.00
2021-07-16T11:08:00,mbh,777.00
2021-07-16T11:09:00,mbh,812.00
2021-07-16T11:10:00,mbh,801.00
2021-07-16T11:11:00,mbh,796.00
2021-07-16T11:12:00,mbh,805.00
2021-07-16T11:13:00,mbh,807.00
2021-07-16T11:14:00,mbh,791.00
2021-07-16T11:15:00,mbh,814.00
2021-07-16T11:16:00,mbh,793.00
2021-07-16T11:17:00,mbh,777.00
2021-07-16T11:18:00,mbh,784.00
2021-07-16T11:19:00,mbh,789.00
2021-07-16T11:20:00,mbh,817.00
2021-07-16T11:21:00,mbh,786.00
2021-07-16T11:22:00,mbh,792.00
2021-07-16T11:23:00,mbh,814.00
2021-07-16T11:24:00,mbh,800.00
2021-07-16T11:25:00,mbh,782.00
2021-07-16T11:26:00,mbh,784.00
2021-07-16T11:27:00,mbh,775.00
2021-07-16T11:28:00,mbh,794.00
2021-07-16T11:29:00,mbh,785.00
2021-07-16T11:30:00,mbh,783.00
2021-07-16T11:31:00,mbh,793.00
2021-07-16T11:32:00,mbh,796.00
2021-07-16T11:33:00,mbh,785.00
2021-07-16T11:34:00,mbh,775.00
2021-07-16T11:35:00,mbh,786.00
2021-07-16T11:36:00,mbh,788.00
2021-07-16T11:37:00,mbh,812.00
2021-07-16T11:38:00,mbh,805.00
2021-07-16T11:39:00,mbh,802.00
2021-07-16T11:40:00,mbh,827.00
2021-07-16T11:41:00,mbh,805.00
2021-07-16T11:42:00,mbh,794.00
2021-07-16T11:43:00,mbh,808.00
2021-07-16T11:44:00,mbh,827.00
2021-07-16T11:45:00,mbh,805.00
2021-07-16T11:46:00,mbh,805.00
2021-07-16T11:47:00,mbh,811.00
2021-07-16T11:48:00,mbh,797.00
2021-07-16T11:49:00,mbh,804.00
2021-07-16T11:50:00,mbh,854.00
2021-07-16T11:51:00,mbh,813.00
2021-07-16T11:52:00,mbh,814.00
2021-07-16T11:53:00,mbh,806.00
2021-07-16T11:54:00,mbh,802.00
2021-07-16T11:55:00,mbh,810.00
2021-07-16T11:56:00,mbh,824.00
2021-07-16T11:57:00,mbh,814.00
2021-07-16T11:58:00,mbh,813.00
2021-07-16T11:59:00,mbh,807.00
2021-07-16T12:00:00,mbh,818.00
2021-07-16T12:01:00,mbh,801.00
2021-07-16T12:02:00,mbh,844.00
2021-07-16T12:03:00,mbh,803.00
2021-07-16T12:04:00,mbh,809.00
2021-07-16T12:05:00,mbh,803.00
2021-07-16T12:06:00,mbh,794.00
2021-07-16T12:07:00,mbh,806.00
2021-07-16T12:08:00,mbh,797.00
2021-07-16T12:09:00,mbh,802.00
2021-07-16T12:10:00,mbh,810.00
2021-07-16T12:11:00,mbh,787.00
2021-07-16T12:12:00,mbh,807.00
2021-07-16T12:13:00,mbh,789.00
2021-07-16T12:14:00,mbh,788.00
2021-07-16T12:15:00,mbh,793.00
2021-07-16T12:16:00,mbh,827.00
2021-07-16T12:17:00,mbh,790.00
2021-07-16T12:18:00,mbh,821.00
2021-07-16T12:19:00,mbh,784.00
2021-07-16T12:20:00,mbh,806.00
2021-07-16T12:21:00,mbh,803.00
2021-07-16T12:22:00,mbh,796.00
2021-07-16T12:23:00,mbh,769.00
2021-07-16T12:24:00,mbh,791.00
2021-07-16T12:25:00,mbh,787.00
2021-07-16T12:26:00,mbh,825.00
2021-07-16T12:27:00,mbh,813.00
2021-07-16T12:28:00,mbh,789.00
2021-07-16T12:29:00,mbh,784.00
2021-07-16T12:30:00,mbh,775.00
2021-07-16T12:31:00,mbh,794.00
2021-07-16T12:32:00,mbh,772.00
2021-07-16T12:33:00,mbh,764.00
2021-07-16T12:34:00,mbh,774.00
2021-07-16T12:35:00,mbh,798.00
2021-07-16T12:36:00,mbh,821.00
2021-07-16T12:37:00,mbh,779.00
2021-07-16T12:38:00,mbh,769.00
2021-07-16T12:39:00,mbh,772.00
2021-07-16T12:40:00,mbh,777.00
2021-07-16T12:41:00,mbh,799.00
2021-07-16T12:42:00,mbh,766.00
2021-07-16T12:43:00,mbh,762.00
2021-07-16T12:44:00,mbh,767.00
2021-07-16T12:45:00,mbh,756.00
2021-07-16T12:46:00,mbh,792.00
2021-07-16T12:47:00,mbh,770.00
2021-07-16T12:48:00,mbh,776.00
2021-07-16T12:49:00,mbh,814.00
2021-07-16T12:50:00,mbh,807.00
2021-07-16T12:51:00,mbh,831.00
2021-07-16T12:52:00,mbh,805.00